Probability
0 0 1 2 1 0 0 1 1 2 3 3 3 3 2 2 1 0 0 1 3 4 5 6 7 9 8 7 5 3 2 1 1 0 0 0 0 0 0 0 0 0 0
0 1 2 2 1 1 1 2 2 2 2 2 2 2 1 1 0 0 0 1 3 4 6 6 7 7 6 6 6 4 4 3 1 0 0 0 0 0 0 0 0 0 0
2 2 3 3 3 2 3 3 3 2 1 1 0 0 0 0 0 0 0 1 2 3 4 6 6 5 3 4 4 4 5 4 2 0 0 0 0 0 0 0 0 0 0
3 3 3 3 3 3 3 3 1 1 0 0 0 0 0 0 0 0 0 1 2 1 1 3 4 2 1 1 3 3 4 4 2 1 1 0 0 0 0 0 0 0 0
3 3 3 3 3 3 2 2 1 0 0 0 0 0 0 0 0 0 0 0 0 0 0 0 1 1 1 2 4 4 3 3 3 2 1 1 1 1 0 0 0 1 1
3 3 3 3 2 1 1 1 1 0 0 0 0 0 0 0 0 0 0 0 0 1 1 1 1 1 3 5 6 5 3 3 3 2 1 1 1 1 0 0 0 1 2
3 3 2 1 1 0 0 0 0 0 0 0 0 0 0 0 0 0 0 0 1 3 3 2 2 2 3 5 6 5 3 2 1 1 0 0 1 1 0 0 0 1 1
3 2 1 1 1 1 1 0 0 0 1 1 1 1 0 0 0 0 0 1 2 4 3 1 1 1 1 2 3 3 2 1 0 0 0 0 0 0 0 0 0 0 0
3 3 2 2 2 2 2 1 1 1 2 2 2 2 1 0 0 0 0 1 2 2 1 0 0 0 0 0 1 1 1 0 0 0 0 0 0 0 0 0 0 0 0
3 3 3 3 3 3 3 3 2 3 3 3 3 3 2 1 0 0 0 0 1 1 0 0 0 0 0 0 0 0 0 0 0 0 0 0 0 0 0 0 0 0 0
3 3 3 3 3 3 3 3 3 3 3 3 3 3 2 1 1 1 0 0 0 0 0 0 0 0 0 0 0 0 0 1 0 0 0 0 0 0 1 1 1 0 0
3 3 3 3 3 3 2 2 3 3 3 3 3 3 3 2 2 2 1 0 0 0 0 0 0 0 0 0 0 0 0 0 0 0 0 0 0 0 1 2 2 1 0
3 2 2 2 2 1 1 1 1 2 3 3 3 3 3 3 3 3 1 0 0 0 0 0 0 0 0 0 0 0 0 0 0 0 0 0 0 0 1 1 1 1 0
4 3 1 1 1 0 0 0 1 2 3 3 3 3 3 3 3 3 2 1 1 0 0 0 0 0 0 0 0 0 0 0 0 0 0 0 0 0 0 0 0 0 0
6 4 3 2 1 0 0 0 1 2 2 3 3 3 3 3 2 2 2 2 1 0 0 0 0 0 0 0 0 0 0 0 0 0 0 0 0 0 0 0 0 0 0
6 5 4 3 2 1 1 0 1 1 1 2 2 2 2 1 1 1 1 1 1 0 0 0 0 0 0 0 0 0 0 0 0 0 0 0 0 0 0 0 0 0 0
6 4 3 3 3 3 2 1 0 0 0 1 1 1 1 0 0 0 0 0 0 0 0 0 0 0 0 0 0 0 0 0 0 0 0 0 0 0 0 0 0 0 0
6 4 3 3 3 3 3 2 1 1 1 0 0 0 0 0 0 0 0 0 0 0 0 0 0 0 0 0 0 0 0 0 0 0 0 0 0 0 0 0 0 0 0
6 5 4 3 3 3 3 3 3 2 2 2 1 0 1 1 1 0 0 0 0 0 0 0 0 1 1 0 0 0 0 0 0 0 0 0 0 0 0 0 0 0 0
6 5 4 3 3 3 3 3 3 3 4 4 3 1 1 1 1 0 0 0 0 0 0 0 1 2 2 1 1 1 1 1 0 0 0 0 0 0 0 0 0 0 0
5 4 3 3 3 3 3 3 3 3 4 5 5 2 0 0 0 0 0 0 0 0 0 0 1 2 3 3 2 3 2 1 0 0 0 0 0 0 0 0 0 0 0
2 2 3 3 3 3 3 3 3 3 4 6 5 3 1 0 0 0 0 0 0 0 0 0 1 2 3 3 3 3 2 1 0 0 0 0 0 0 0 0 0 0 0
1 1 2 3 3 3 2 1 1 2 4 6 6 4 1 0 0 0 0 0 0 0 0 0 1 2 2 2 2 2 1 0 0 0 0 0 0 0 0 0 0 0 0
2 1 1 1 3 3 1 0 0 1 3 6 6 4 1 0 0 0 0 0 0 0 0 0 0 1 1 1 1 1 1 0 0 0 0 0 0 0 0 0 0 0 0
2 1 1 1 2 2 1 0 0 1 3 5 5 3 1 0 0 0 1 1 1 1 1 0 0 0 0 0 0 0 0 0 0 0 0 0 0 0 0 0 0 0 0
3 2 2 2 2 1 0 0 0 1 3 5 5 3 1 0 0 0 1 2 2 2 2 1 0 0 0 0 0 0 0 0 0 0 0 0 0 0 0 0 0 0 0
Wind_Speed
1 1 1 2 2 2 2 2 2 2 2 2 1 2 1 1 1 1 0 1 1 3 3 4 4 5 5 5 6 6 5 5 5 5 5 5 5 5 5 5 5 5 5
1 1 2 2 1 1 2 2 2 2 2 2 2 2 2 1 1 0 0 1 2 2 2 3 3 4 4 4 5 5 5 4 5 5 5 5 5 5 5 5 6 6 6
2 2 2 1 1 1 2 2 2 2 2 2 2 2 1 1 1 1 0 0 1 1 2 2 3 3 4 4 4 4 4 4 4 4 5 5 5 6 6 6 6 7 6
2 2 2 1 1 1 2 2 2 2 2 2 1 1 1 1 1 1 1 1 1 1 1 1 2 3 3 4 4 4 4 4 4 4 4 5 5 5 5 6 6 6 6
2 2 2 1 2 2 1 1 2 1 1 1 1 1 1 1 1 1 1 1 1 1 1 2 3 3 3 4 4 4 4 4 4 4 4 4 4 4 4 5 5 5 5
2 2 2 2 2 2 1 1 2 2 1 1 1 2 1 1 1 1 1 1 1 1 1 1 2 2 3 3 3 3 3 4 4 3 3 3 4 4 4 4 5 6 5
2 2 2 2 2 2 1 2 2 2 1 1 2 2 2 2 1 1 1 1 2 1 1 1 1 1 1 2 3 2 3 3 3 3 3 3 3 3 4 4 5 5 5
2 3 3 2 2 2 2 1 2 1 1 1 1 1 2 3 2 2 1 1 2 2 2 2 2 2 1 1 2 3 3 3 3 3 4 4 4 4 4 4 4 4 4
2 2 3 2 2 2 2 1 2 2 1 0 1 2 2 1 2 2 2 1 2 2 2 2 2 2 2 1 2 3 3 3 4 5 5 4 4 4 5 4 5 5 4
1 2 2 3 2 2 2 2 2 1 2 1 0 1 1 2 1 2 2 2 2 2 2 2 2 2 2 2 2 3 3 3 4 5 5 4 3 4 5 5 4 4 5
1 1 2 2 2 2 2 2 2 2 2 2 1 1 1 1 1 1 2 3 2 2 2 2 2 2 2 2 2 3 4 4 4 4 4 4 4 4 4 5 5 5 4
0 0 1 2 2 2 2 2 2 2 2 2 1 1 2 2 2 2 2 2 2 2 2 2 2 2 2 2 3 4 4 3 3 4 4 4 4 4 4 4 4 4 4
1 1 1 1 1 2 2 2 2 2 2 2 2 1 2 2 2 2 1 1 2 2 2 2 1 2 2 2 2 4 3 3 3 3 4 4 4 4 4 4 4 4 3
2 2 2 2 2 2 2 2 1 2 2 2 2 2 2 2 2 2 2 2 1 1 1 2 1 2 2 2 3 3 2 3 3 4 4 4 4 4 4 4 3 3 2
2 2 2 2 2 2 2 2 2 2 2 2 2 2 2 2 2 2 2 2 2 1 2 2 2 2 2 2 2 2 2 3 3 3 4 4 4 4 3 3 2 2 2
2 3 2 2 2 2 2 2 2 2 2 2 2 2 2 1 2 2 2 1 2 2 2 2 2 2 2 2 2 2 2 4 3 4 4 4 4 3 2 2 2 2 2
3 3 3 2 2 2 2 2 2 2 2 2 2 2 3 2 2 1 2 2 2 2 2 2 2 2 2 2 3 2 2 2 2 4 4 4 3 3 2 2 2 2 2
3 3 3 3 3 3 3 3 3 3 3 3 3 3 3 2 2 2 2 2 2 2 2 2 2 1 2 2 2 2 3 2 3 4 5 4 4 3 3 2 2 2 2
3 2 3 3 3 3 3 4 4 4 4 4 4 4 3 3 3 2 2 2 2 2 2 2 2 1 1 2 2 2 3 2 3 4 4 4 4 4 3 2 2 2 2
3 3 3 3 3 3 4 4 3 3 3 3 4 4 4 4 4 4 3 3 2 2 1 1 1 1 1 2 1 1 2 2 3 3 3 3 3 3 3 2 2 2 2
3 3 3 3 3 3 3 4 4 4 3 3 3 3 4 4 5 4 3 3 3 2 2 2 2 1 2 1 1 1 2 2 2 1 2 2 2 2 2 2 2 2 2
2 2 3 3 3 3 4 5 3 3 3 4 3 3 3 4 4 4 4 4 5 4 4 3 2 3 3 3 2 2 1 1 2 1 1 3 2 2 2 2 2 2 2
2 2 2 3 3 3 4 5 5 3 3 3 3 3 3 2 2 2 3 3 4 5 6 5 4 5 4 4 3 2 2 2 3 1 1 2 2 2 2 2 3 3 2
2 3 3 3 3 4 5 5 5 4 4 4 4 4 3 3 2 2 2 2 3 3 4 4 5 5 5 4 4 3 3 2 2 2 1 1 2 2 2 3 4 3 1
3 3 3 4 4 4 4 4 4 3 3 4 3 3 3 3 3 3 2 3 3 3 3 3 3 3 4 4 3 2 2 2 2 2 1 2 1 2 2 2 3 2 1
3 3 3 3 4 4 4 4 4 3 3 3 2 2 4 4 4 4 3 3 3 3 2 1 2 2 2 2 3 4 4 3 1 2 2 2 1 1 1 1 2 2 1
Wind_Direction
91 77 77 75 69 67 76 70 66 64 56 46 57 71 72 94 128 138 264 259 238 236 219 217 217 214 208 206 208 210 207 209 207 211 214 213 212 214 217 216 217 217 214
120 107 89 85 79 79 81 87 81 76 61 59 54 55 62 71 97 152 190 283 272 251 232 232 232 226 216 212 213 214 209 212 215 215 217 219 221 224 224 227 227 228 226
134 121 107 93 81 87 89 81 69 69 68 61 45 39 52 55 63 65 66 27 306 266 245 239 245 242 230 226 226 221 210 215 221 221 224 225 225 227 226 229 236 238 236
128 118 111 103 96 94 93 90 79 72 58 52 36 18 31 41 50 48 46 30 15 334 300 279 264 257 249 240 235 232 220 218 220 221 229 233 233 230 228 230 236 240 238
126 124 116 113 111 99 87 105 83 96 86 57 36 27 19 15 360 16 24 3 351 331 320 312 286 267 257 253 246 242 229 219 224 228 234 233 232 232 233 235 237 236 238
123 126 115 115 114 105 88 88 95 77 84 74 60 34 15 360 354 355 342 348 347 320 325 316 304 291 279 271 258 243 233 216 218 227 240 240 237 234 238 242 242 240 244
133 135 129 133 120 120 133 123 106 88 65 61 69 18 0 4 357 347 352 359 352 336 339 318 298 290 291 285 274 259 244 236 232 236 241 246 247 239 239 244 244 241 245
150 160 151 143 136 131 121 118 116 111 99 76 104 82 359 348 344 351 355 351 335 333 334 317 311 306 297 289 284 271 275 273 266 262 255 246 244 247 253 255 247 242 242
160 157 157 146 149 150 161 165 149 145 162 135 90 129 140 245 310 327 337 348 340 333 324 319 320 317 308 303 293 287 280 278 279 273 265 255 247 248 253 254 253 251 255
146 152 148 155 156 153 164 181 155 163 151 165 127 90 151 158 175 315 327 334 331 320 317 320 317 310 306 294 293 300 296 280 272 274 275 266 258 255 254 254 258 262 259
152 158 155 154 162 165 173 172 152 162 165 164 160 153 137 99 143 187 293 322 331 319 310 305 306 306 299 287 280 292 292 277 270 271 269 264 262 267 267 262 259 260 264
231 210 169 171 176 173 181 188 178 169 171 166 163 156 158 167 183 183 230 279 298 308 314 309 315 316 309 305 296 308 294 277 265 266 266 263 263 267 272 273 271 265 262
207 243 216 202 197 201 196 180 175 183 185 178 179 184 191 200 171 170 190 245 282 305 317 310 304 314 316 322 312 319 302 293 277 272 273 272 271 273 275 275 276 277 270
202 204 213 214 211 203 197 177 178 195 183 191 201 196 202 212 194 183 180 178 275 310 314 295 303 303 317 315 318 318 314 301 288 285 285 282 279 276 272 267 265 267 268
191 189 207 213 218 203 193 177 186 207 193 204 214 212 211 212 203 201 188 179 172 248 290 286 291 299 310 306 323 324 316 314 304 296 294 295 293 285 280 264 256 250 251
190 184 200 205 214 207 191 181 197 208 198 222 221 220 225 212 203 193 188 187 182 192 249 280 274 296 306 317 330 324 315 323 313 312 309 304 301 291 283 265 253 245 244
193 191 198 201 212 213 203 198 211 206 208 228 227 217 234 216 199 197 182 176 188 187 229 278 285 299 291 317 336 335 327 317 314 307 311 309 310 300 294 279 262 250 245
203 198 195 200 211 212 210 211 223 220 216 224 229 221 234 226 213 202 192 198 202 199 204 250 282 299 294 303 321 329 330 317 309 317 315 315 318 309 294 271 256 249 247
205 200 202 214 220 216 215 220 221 223 225 228 225 222 229 219 227 214 206 211 213 202 198 213 263 285 298 312 331 337 336 329 323 328 324 322 328 320 305 281 261 250 248
204 210 211 217 222 223 225 224 218 222 230 235 230 226 227 222 225 214 210 215 208 200 198 209 252 283 292 300 303 322 331 333 325 332 339 336 345 347 338 315 294 271 255
215 209 207 216 223 222 232 230 221 220 225 238 243 242 238 231 225 212 210 208 201 206 206 215 238 255 268 274 278 276 289 314 313 317 327 334 343 347 341 330 320 303 266
222 207 212 220 227 240 242 233 220 224 228 229 240 255 253 233 230 225 225 211 197 201 207 210 229 239 250 244 246 247 258 300 301 310 323 319 338 332 327 325 334 318 294
231 228 234 232 241 252 242 236 226 218 228 232 233 243 259 262 237 235 237 229 224 226 211 203 220 235 238 228 219 237 237 244 257 277 301 304 324 319 318 331 325 313 297
233 233 236 233 241 253 244 236 226 229 234 236 233 231 239 253 251 234 236 243 247 244 235 219 224 236 240 234 220 218 222 244 268 266 222 266 306 309 326 330 329 320 309
240 242 240 230 237 254 250 238 225 229 240 248 246 236 234 243 239 210 207 233 252 265 263 249 250 255 252 244 214 182 194 208 256 265 210 221 266 298 314 323 338 356 36
239 237 245 239 234 243 245 229 211 214 227 240 255 256 245 245 234 205 209 218 239 257 272 308 316 311 276 246 214 204 202 206 223 243 197 202 233 278 306 313 335 344 12